| time (UTC) | temp F | wind direction | speed knots | gust knots | rain 1hr in | rain 24hr in | rain mn in | humidity % | barometer mb |
| 20260507064515 | 65 | 0 | 1.7 | 2.6 | 0.00 | 0.00 | 0.00 | 69 | 1017.1 |
| 20260507063518 | 65 | 304 | 0.9 | 2.6 | 0.00 | 0.00 | 0.00 | 67 | 1017.2 |
| 20260507062517 | 65 | 305 | 0.0 | 1.7 | 0.00 | 0.00 | 0.00 | 68 | 1017.1 |
| 20260507061516 | 64 | 360 | 0.9 | 2.6 | 0.00 | 0.00 | 0.00 | 69 | 1017.1 |
| 20260507060517 | 64 | 0 | 0.9 | 1.7 | 0.00 | 0.00 | 0.00 | 71 | 1017.0 |
| 20260507055517 | 63 | 52 | 0.0 | 2.6 | 0.00 | 0.00 | 0.00 | 73 | 1016.8 |
| 20260507054515 | 62 | 0 | 0.9 | 2.6 | 0.00 | 0.00 | 0.00 | 73 | 1016.8 |
| 20260507053518 | 61 | 0 | 0.9 | 2.6 | 0.00 | 0.00 | 0.00 | 73 | 1016.8 |
| 20260507052518 | 61 | 0 | 1.7 | 4.3 | 0.00 | 0.00 | 0.00 | 73 | 1016.6 |
| 20260507051517 | 61 | 0 | 0.9 | 3.5 | 0.00 | 0.00 | 0.00 | 74 | 1016.5 |
| 20260507050518 | 60 | 0 | 1.7 | 2.6 | 0.00 | 0.00 | 0.00 | 74 | 1016.3 |
| 20260507045517 | 60 | 0 | 1.7 | 2.6 | 0.00 | 0.00 | 0.00 | 73 | 1016.3 |
| 20260507044517 | 60 | 0 | 0.9 | 2.6 | 0.00 | 0.00 | 0.00 | 73 | 1016.2 |
| 20260507043519 | 60 | 0 | 0.9 | 2.6 | 0.00 | 0.00 | 0.00 | 72 | 1016.1 |
| 20260507042517 | 59 | 0.0 | 0.0 | 0.00 | 0.00 | 0.00 | 71 | 1016.2 | |
| 20260507041516 | 58 | 1 | 0.9 | 1.7 | 0.00 | 0.00 | 0.00 | 71 | 1016.1 |
| 20260507040538 | 58 | 1 | 0.9 | 3.5 | 0.00 | 0.00 | 0.00 | 71 | 1016.0 |
| 20260507035517 | 57 | 360 | 1.7 | 5.2 | 0.00 | 0.00 | 0.00 | 70 | 1016.0 |
| 20260507034517 | 58 | 0 | 1.7 | 4.3 | 0.00 | 0.00 | 0.00 | 69 | 1015.9 |
| 20260507033516 | 58 | 2 | 0.9 | 2.6 | 0.00 | 0.00 | 0.00 | 71 | 1015.9 |
| 20260507032518 | 58 | 1 | 0.9 | 2.6 | 0.00 | 0.00 | 0.00 | 73 | 1015.9 |
| 20260507031517 | 57 | 2 | 1.7 | 7.0 | 0.00 | 0.00 | 0.00 | 73 | 1015.9 |
| 20260507030538 | 56 | 0 | 2.6 | 7.8 | 0.00 | 0.00 | 0.00 | 74 | 1015.8 |
| 20260507025516 | 56 | 0 | 3.5 | 7.0 | 0.00 | 0.00 | 0.00 | 73 | 1015.8 |
| 20260507024536 | 56 | 360 | 2.6 | 5.2 | 0.00 | 0.00 | 0.00 | 73 | 1015.8 |
| 20260507023517 | 56 | 0 | 1.7 | 5.2 | 0.00 | 0.00 | 0.00 | 74 | 1015.7 |
| 20260507022517 | 56 | 360 | 3.5 | 7.0 | 0.00 | 0.00 | 0.00 | 73 | 1015.7 |
| 20260507021638 | 56 | 0 | 1.7 | 4.3 | 0.00 | 0.00 | 0.00 | 72 | 1015.6 |
| 20260507020516 | 57 | 1 | 1.7 | 4.3 | 0.00 | 0.00 | 0.00 | 72 | 1015.7 |
| 20260507015518 | 57 | 360 | 3.5 | 7.0 | 0.00 | 0.00 | 0.00 | 71 | 1015.6 |
| 20260507014518 | 58 | 360 | 2.6 | 5.2 | 0.00 | 0.00 | 0.00 | 71 | 1015.3 |
| 20260507013517 | 57 | 360 | 3.5 | 7.0 | 0.00 | 0.00 | 0.00 | 72 | 1015.1 |
| 20260507012516 | 57 | 0 | 5.2 | 8.7 | 0.00 | 0.00 | 0.00 | 70 | 1015.1 |
| 20260507011538 | 59 | 0 | 3.5 | 7.0 | 0.00 | 0.00 | 0.00 | 67 | 1015.0 |
| 20260507010516 | 59 | 0 | 1.7 | 4.3 | 0.00 | 0.00 | 0.00 | 67 | 1015.0 |
| 20260507005516 | 59 | 0 | 1.7 | 5.2 | 0.00 | 0.00 | 0.00 | 67 | 1015.1 |
| 20260507004517 | 59 | 360 | 2.6 | 7.0 | 0.00 | 0.00 | 0.00 | 67 | 1015.0 |
| 20260507003518 | 58 | 0 | 2.6 | 7.0 | 0.00 | 0.00 | 0.00 | 69 | 1015.0 |
| 20260507002518 | 58 | 0 | 2.6 | 7.8 | 0.00 | 0.00 | 0.00 | 69 | 1015.0 |
| 20260507001538 | 58 | 0 | 1.7 | 4.3 | 0.00 | 0.00 | 0.00 | 69 | 1014.9 |
| 20260507000518 | 59 | 0 | 0.9 | 3.5 | 0.00 | 0.00 | 0.00 | 68 | 1015.0 |
| 20260506235558 | 59 | 0 | 1.7 | 4.3 | 0.00 | 0.00 | 0.00 | 68 | 1015.2 |
| 20260506234516 | 59 | 0 | 1.7 | 5.2 | 0.00 | 0.00 | 0.00 | 68 | 1015.3 |
| 20260506233538 | 58 | 360 | 5.2 | 8.7 | 0.00 | 0.00 | 0.00 | 69 | 1015.5 |
| 20260506232518 | 59 | 0 | 4.3 | 8.7 | 0.00 | 0.00 | 0.00 | 68 | 1015.6 |
| 20260506231518 | 59 | 0 | 3.5 | 7.8 | 0.00 | 0.00 | 0.00 | 67 | 1015.6 |
| 20260506230538 | 59 | 360 | 3.5 | 7.8 | 0.00 | 0.00 | 0.00 | 67 | 1015.6 |
| 20260506225516 | 60 | 360 | 3.5 | 5.2 | 0.00 | 0.00 | 0.00 | 66 | 1015.6 |
| 20260506224516 | 60 | 0 | 2.6 | 4.3 | 0.00 | 0.00 | 0.00 | 65 | 1015.6 |
| 20260506223517 | 60 | 357 | 3.5 | 5.2 | 0.00 | 0.00 | 0.00 | 65 | 1015.7 |
| 20260506222518 | 60 | 5 | 2.6 | 7.0 | 0.00 | 0.00 | 0.00 | 67 | 1015.6 |
| 20260506221518 | 60 | 30 | 3.5 | 7.8 | 0.00 | 0.00 | 0.00 | 68 | 1015.6 |
| 20260506220558 | 59 | 166 | 4.3 | 8.7 | 0.00 | 0.00 | 0.00 | 68 | 1015.5 |
| 20260506215536 | 61 | 160 | 2.6 | 6.1 | 0.00 | 0.00 | 0.00 | 66 | 1015.6 |
| 20260506214516 | 61 | 351 | 2.6 | 5.2 | 0.00 | 0.00 | 0.00 | 65 | 1015.7 |
| 20260506213538 | 60 | 69 | 2.6 | 8.7 | 0.00 | 0.00 | 0.00 | 67 | 1015.9 |
| 20260506212518 | 60 | 298 | 5.2 | 8.7 | 0.00 | 0.00 | 0.00 | 68 | 1015.9 |
| 20260506211516 | 60 | 282 | 3.5 | 8.7 | 0.00 | 0.00 | 0.00 | 68 | 1015.7 |
| 20260506210538 | 60 | 305 | 3.5 | 7.0 | 0.00 | 0.00 | 0.00 | 68 | 1015.7 |
| 20260506205517 | 61 | 313 | 3.5 | 5.2 | 0.00 | 0.00 | 0.00 | 67 | 1015.6 |
| 20260506204516 | 62 | 317 | 3.5 | 6.1 | 0.00 | 0.00 | 0.00 | 65 | 1015.5 |
| 20260506203536 | 62 | 310 | 4.3 | 8.7 | 0.00 | 0.00 | 0.00 | 65 | 1015.5 |
| 20260506202515 | 62 | 187 | 4.3 | 7.0 | 0.00 | 0.00 | 0.00 | 66 | 1015.3 |
| 20260506201517 | 62 | 150 | 2.6 | 6.1 | 0.00 | 0.00 | 0.00 | 67 | 1015.3 |
| 20260506200517 | 62 | 258 | 3.5 | 5.2 | 0.00 | 0.00 | 0.00 | 68 | 1015.3 |
| 20260506195557 | 62 | 357 | 3.5 | 7.0 | 0.00 | 0.00 | 0.00 | 69 | 1015.5 |
| 20260506194515 | 62 | 359 | 2.6 | 7.0 | 0.00 | 0.00 | 0.00 | 70 | 1015.5 |
| 20260506193515 | 62 | 162 | 1.7 | 4.3 | 0.00 | 0.00 | 0.00 | 71 | 1015.4 |
| 20260506192537 | 62 | 331 | 2.6 | 4.3 | 0.00 | 0.00 | 0.00 | 73 | 1015.3 |
| 20260506191515 | 62 | 263 | 0.9 | 2.6 | 0.00 | 0.00 | 0.00 | 73 | 1015.2 |
| 20260506190515 | 63 | 297 | 1.7 | 3.5 | 0.00 | 0.00 | 0.00 | 73 | 1015.0 |
| 20260506185515 | 63 | 328 | 2.6 | 3.5 | 0.00 | 0.00 | 0.00 | 73 | 1014.9 |
| 20260506184515 | 64 | 336 | 1.7 | 3.5 | 0.00 | 0.00 | 0.00 | 73 | 1014.8 |
| 20260506183515 | 65 | 315 | 1.7 | 2.6 | 0.00 | 0.00 | 0.00 | 71 | 1014.7 |
| 20260506182516 | 67 | 355 | 1.7 | 3.5 | 0.00 | 0.00 | 0.00 | 69 | 1014.5 |
| 20260506181515 | 68 | 202 | 1.7 | 4.3 | 0.00 | 0.00 | 0.00 | 68 | 1014.2 |
| 20260506180517 | 68 | 6 | 0.9 | 2.6 | 0.00 | 0.00 | 0.00 | 66 | 1014.1 |
| 20260506175517 | 69 | 17 | 0.0 | 1.7 | 0.00 | 0.00 | 0.00 | 66 | 1014.0 |
| 20260506174515 | 69 | 5 | 0.9 | 1.7 | 0.00 | 0.00 | 0.00 | 66 | 1014.0 |
| 20260506173515 | 69 | 11 | 0.0 | 1.7 | 0.00 | 0.00 | 0.00 | 65 | 1013.9 |
| 20260506172517 | 69 | 9 | 0.0 | 2.6 | 0.00 | 0.00 | 0.00 | 64 | 1013.8 |
| 20260506171515 | 70 | 7 | 0.9 | 2.6 | 0.00 | 0.00 | 0.00 | 64 | 1013.7 |
| 20260506170515 | 70 | 15 | 1.7 | 3.5 | 0.00 | 0.00 | 0.00 | 63 | 1013.7 |
| 20260506165515 | 70 | 11 | 1.7 | 5.2 | 0.00 | 0.00 | 0.00 | 62 | 1013.7 |
| 20260506164515 | 72 | 0 | 0.9 | 2.6 | 0.00 | 0.00 | 0.00 | 61 | 1013.7 |
| 20260506163515 | 72 | 0 | 1.7 | 3.5 | 0.00 | 0.00 | 0.00 | 60 | 1013.6 |
| 20260506162517 | 73 | 5 | 1.7 | 4.3 | 0.00 | 0.00 | 0.00 | 59 | 1013.7 |
| 20260506161517 | 74 | 15 | 1.7 | 5.2 | 0.00 | 0.00 | 0.00 | 59 | 1013.7 |
| 20260506160515 | 74 | 345 | 1.7 | 7.0 | 0.00 | 0.00 | 0.00 | 59 | 1013.6 |
| 20260506155515 | 76 | 350 | 2.6 | 5.2 | 0.00 | 0.00 | 0.00 | 56 | 1013.6 |
| 20260506154515 | 77 | 4 | 2.6 | 7.8 | 0.00 | 0.00 | 0.00 | 54 | 1013.6 |
| 20260506153516 | 77 | 348 | 2.6 | 7.0 | 0.00 | 0.00 | 0.00 | 55 | 1013.6 |
| 20260506152517 | 77 | 345 | 2.6 | 8.7 | 0.00 | 0.00 | 0.00 | 51 | 1013.7 |
| 20260506151516 | 77 | 11 | 3.5 | 7.8 | 0.00 | 0.00 | 0.00 | 53 | 1013.7 |
| 20260506150516 | 76 | 322 | 1.7 | 6.1 | 0.00 | 0.00 | 0.00 | 56 | 1013.7 |
| 20260506145515 | 75 | 296 | 3.5 | 6.1 | 0.00 | 0.00 | 0.00 | 56 | 1013.7 |
| 20260506144517 | 76 | 296 | 2.6 | 4.3 | 0.00 | 0.00 | 0.00 | 55 | 1013.7 |
| 20260506143517 | 76 | 324 | 0.9 | 5.2 | 0.00 | 0.00 | 0.00 | 52 | 1013.8 |
| 20260506142515 | 77 | 341 | 3.5 | 7.8 | 0.00 | 0.00 | 0.00 | 48 | 1013.8 |
| 20260506141618 | 78 | 353 | 2.6 | 7.0 | 0.00 | 0.00 | 0.00 | 48 | 1013.8 |
| 20260506140515 | 78 | 359 | 3.5 | 13.0 | 0.00 | 0.00 | 0.00 | 45 | 1013.6 |
| 20260506135515 | 78 | 6 | 5.2 | 11.3 | 0.00 | 0.00 | 0.00 | 44 | 1013.6 |
| 20260506134516 | 77 | 17 | 5.2 | 11.3 | 0.00 | 0.00 | 0.00 | 42 | 1013.8 |
| 20260506133515 | 77 | 2 | 3.5 | 8.7 | 0.00 | 0.00 | 0.00 | 46 | 1013.8 |
| 20260506132515 | 76 | 10 | 5.2 | 10.4 | 0.00 | 0.00 | 0.00 | 47 | 1014.0 |
| 20260506131515 | 75 | 2 | 2.6 | 7.8 | 0.00 | 0.00 | 0.00 | 47 | 1014.1 |
| 20260506130515 | 76 | 358 | 4.3 | 8.7 | 0.00 | 0.00 | 0.00 | 45 | 1014.1 |
| 20260506125515 | 75 | 6 | 3.5 | 10.4 | 0.00 | 0.00 | 0.00 | 44 | 1014.1 |
| 20260506124515 | 75 | 17 | 4.3 | 8.7 | 0.00 | 0.00 | 0.00 | 45 | 1014.1 |
| 20260506123535 | 75 | 39 | 4.3 | 9.6 | 0.00 | 0.00 | 0.00 | 43 | 1014.3 |
| 20260506122515 | 76 | 16 | 4.3 | 11.3 | 0.00 | 0.00 | 0.00 | 43 | 1014.4 |
| 20260506121515 | 76 | 14 | 4.3 | 11.3 | 0.00 | 0.00 | 0.00 | 42 | 1014.5 |
| 20260506120615 | 76 | 13 | 6.1 | 11.3 | 0.00 | 0.00 | 0.00 | 41 | 1014.6 |
| 20260506115536 | 75 | 3 | 5.2 | 12.2 | 0.00 | 0.00 | 0.00 | 43 | 1014.6 |
| 20260506114516 | 75 | 16 | 4.3 | 10.4 | 0.00 | 0.00 | 0.00 | 46 | 1014.7 |
| 20260506113515 | 74 | 48 | 3.5 | 9.6 | 0.00 | 0.00 | 0.00 | 44 | 1014.8 |
| 20260506112517 | 75 | 27 | 4.3 | 8.7 | 0.00 | 0.00 | 0.00 | 44 | 1014.9 |
| 20260506111515 | 76 | 0 | 4.3 | 8.7 | 0.00 | 0.00 | 0.00 | 41 | 1015.0 |
| 20260506110535 | 74 | 35 | 5.2 | 8.7 | 0.00 | 0.00 | 0.00 | 44 | 1015.0 |
| 20260506105515 | 74 | 20 | 3.5 | 11.3 | 0.00 | 0.00 | 0.00 | 44 | 1015.3 |
| 20260506104516 | 75 | 31 | 5.2 | 11.3 | 0.00 | 0.00 | 0.00 | 44 | 1015.3 |
| 20260506103515 | 75 | 22 | 4.3 | 8.7 | 0.00 | 0.00 | 0.00 | 45 | 1015.3 |
| 20260506102515 | 74 | 38 | 4.3 | 8.7 | 0.00 | 0.00 | 0.00 | 47 | 1015.3 |
| 20260506101515 | 74 | 47 | 6.1 | 9.6 | 0.00 | 0.00 | 0.00 | 48 | 1015.4 |
| 20260506100515 | 73 | 38 | 5.2 | 9.6 | 0.00 | 0.00 | 0.00 | 49 | 1015.4 |
| 20260506095516 | 74 | 23 | 4.3 | 8.7 | 0.00 | 0.00 | 0.00 | 48 | 1015.6 |
| 20260506094515 | 75 | 27 | 4.3 | 8.7 | 0.00 | 0.00 | 0.00 | 47 | 1015.7 |
| 20260506093515 | 74 | 29 | 2.6 | 7.8 | 0.00 | 0.00 | 0.00 | 45 | 1015.7 |
| 20260506092538 | 74 | 30 | 4.3 | 8.7 | 0.00 | 0.00 | 0.00 | 47 | 1015.7 |
| 20260506091515 | 73 | 45 | 3.5 | 8.7 | 0.00 | 0.00 | 0.00 | 44 | 1015.8 |
| 20260506090535 | 72 | 41 | 3.5 | 7.0 | 0.00 | 0.00 | 0.00 | 43 | 1015.8 |
| 20260506085517 | 72 | 0 | 4.3 | 7.8 | 0.00 | 0.00 | 0.00 | 46 | 1015.9 |
| 20260506084517 | 72 | 54 | 3.5 | 6.1 | 0.00 | 0.00 | 0.00 | 49 | 1015.9 |
| 20260506083515 | 71 | 23 | 2.6 | 7.8 | 0.00 | 0.00 | 0.00 | 52 | 1015.9 |
| 20260506082538 | 72 | 8 | 4.3 | 7.8 | 0.00 | 0.00 | 0.00 | 53 | 1015.9 |
| 20260506081515 | 71 | 22 | 2.6 | 7.0 | 0.00 | 0.00 | 0.00 | 52 | 1015.9 |
| 20260506080516 | 71 | 27 | 2.6 | 6.1 | 0.00 | 0.00 | 0.00 | 54 | 1015.8 |
| 20260506073516 | 69 | 29 | 2.6 | 5.2 | 0.00 | 0.00 | 0.00 | 60 | 1015.8 |
| 20260506072517 | 68 | 31 | 1.7 | 4.3 | 0.00 | 0.00 | 0.00 | 62 | 1015.9 |
| 20260506071515 | 68 | 11 | 1.7 | 4.3 | 0.00 | 0.00 | 0.00 | 63 | 1015.9 |
| 20260506070516 | 68 | 0 | 2.6 | 5.2 | 0.00 | 0.00 | 0.00 | 64 | 1015.8 |